Stations météo

Publicité
La Hague, France (7020): Température de l'air & dewpoint: 13.02.2020 07:00:00 - 19.02.2020 07:00:00 (CET)La Hague, France (7020): Vitesse du vent & gusts: 13.02.2020 07:00:00 - 19.02.2020 07:00:00 (CET)La Hague, France (7020): Direction du vent: 13.02.2020 07:00:00 - 19.02.2020 07:00:00 (CET)La Hague, France (7020): reduced air pressure: 13.02.2020 07:00:00 - 19.02.2020 07:00:00 (CET)La Hague, France (7020): visibility: 13.02.2020 07:00:00 - 19.02.2020 07:00:00 (CET)La Hague, France (7020): Quantités de précipitations: 13.02.2020 07:00:00 - 19.02.2020 07:00:00 (CET)
Date & Time tt [°C] td [°C] ff [km/h] ff [knt] fx [km/h] fx [knt] dd ppp [hPa] vv [km] rr [mm]
19.02.2020 07:00:00 - - - - - - - - - -
19.02.2020 06:00:00 8,5 4,5 26 14 39 21 W 1023,9 - 0,0
19.02.2020 05:00:00 8,4 3,8 34 18 53 29 WNW 1023,6 - 0,0
19.02.2020 04:00:00 8,4 3,6 41 22 58 31 WNW 1023,1 10 0,0
19.02.2020 03:00:00 8,4 4,0 39 21 61 33 WNW 1022,7 - 0,0
19.02.2020 02:00:00 8,5 4,7 39 21 54 29 WNW 1022,2 - 0,0
19.02.2020 01:00:00 8,0 4,6 33 18 58 31 WNW 1021,5 10 0,0
19.02.2020 00:00:00 7,6 5,1 40 22 95 51 WNW 1021,1 - 0,8
18.02.2020 23:00:00 9,5 5,9 43 23 63 34 W 1020,7 - 0,0
18.02.2020 22:00:00 8,8 7,1 37 20 65 35 W 1020,5 10 1,0
18.02.2020 21:00:00 8,9 7,0 48 26 74 40 WSW 1020,2 - 2,4
18.02.2020 20:00:00 9,9 7,7 50 27 79 42 WSW 1020,6 - 0,4
18.02.2020 19:00:00 9,9 7,1 53 29 74 40 WSW 1020,9 10 0,0
18.02.2020 18:00:00 10,1 7,5 54 29 80 43 WSW 1021,3 - 1,2
18.02.2020 17:00:00 10,1 7,3 53 28 75 41 SW 1022,1 - 0,0
18.02.2020 16:00:00 10,3 7,0 50 27 71 38 SW 1022,6 10 0,0
18.02.2020 15:00:00 10,2 6,7 53 28 71 39 SW 1023,4 - 0,2
18.02.2020 14:00:00 10,2 6,2 47 26 66 35 SW 1024,0 - 0,0
18.02.2020 13:00:00 10,2 6,2 41 22 57 31 WSW 1024,8 14 0,0
18.02.2020 12:00:00 10,2 6,2 39 21 51 28 WSW 1025,2 - 0,0
18.02.2020 11:00:00 9,0 5,0 42 23 57 31 WSW 1025,2 - 0,0
18.02.2020 10:00:00 9,4 5,2 32 17 48 26 WSW 1025,1 14 0,0
18.02.2020 09:00:00 9,0 4,4 35 19 51 28 W 1024,8 - 0,0
18.02.2020 08:00:00 8,7 5,3 36 20 52 28 W 1024,2 - 0,0
18.02.2020 07:00:00 8,2 5,5 35 19 57 31 W 1023,9 10 0,8
18.02.2020 06:00:00 8,7 4,9 44 24 70 38 W 1023,5 - 0,2
18.02.2020 05:00:00 8,6 4,6 39 21 54 29 WSW 1023,7 - 0,0
18.02.2020 04:00:00 8,4 5,5 37 20 68 37 WSW 1023,6 10 0,0
18.02.2020 03:00:00 8,9 4,9 42 23 64 35 WSW 1023,7 - 0,0
18.02.2020 02:00:00 8,2 4,8 41 22 60 32 WSW 1023,6 - 0,0
18.02.2020 01:00:00 8,7 3,7 44 24 63 34 W 1023,2 12 0,0
18.02.2020 00:00:00 8,5 4,1 38 21 58 32 W 1022,9 - 0,0
17.02.2020 23:00:00 8,6 4,8 34 18 62 33 W 1022,2 - 0,0
17.02.2020 22:00:00 8,5 4,1 40 22 77 42 W 1021,6 14 0,2
17.02.2020 21:00:00 8,4 5,1 41 22 86 46 W 1020,7 - 1,2
17.02.2020 20:00:00 8,5 5,1 38 20 71 38 W 1019,9 - 1,2
17.02.2020 19:00:00 9,2 5,6 46 25 63 34 W 1018,6 10 0,0
17.02.2020 18:00:00 8,8 5,4 42 23 82 44 WSW 1017,8 - 0,4
17.02.2020 17:00:00 9,6 5,2 42 23 74 40 WSW 1017,1 - 0,0
17.02.2020 16:00:00 10,0 6,3 48 26 66 35 WSW 1016,3 10 0,0
17.02.2020 15:00:00 8,8 5,4 48 26 95 51 W 1015,3 - 0,8
17.02.2020 14:00:00 10,1 6,2 53 29 87 47 W 1014,8 - 0,4
17.02.2020 13:00:00 9,5 6,6 47 26 84 45 WSW 1013,9 10 0,2
17.02.2020 12:00:00 9,4 5,8 60 32 99 54 WSW 1013,4 - 0,2
17.02.2020 11:00:00 9,9 5,5 51 27 72 39 SW 1012,7 - 0,0
17.02.2020 10:00:00 9,2 5,7 41 22 69 37 WSW 1012,5 10 0,0
17.02.2020 09:00:00 8,0 4,4 48 26 82 44 WSW 1011,3 - 0,2
17.02.2020 08:00:00 8,6 5,7 44 24 66 35 SW 1010,5 - 0,0
17.02.2020 07:00:00 9,1 6,0 46 25 66 36 SW 1010,5 10 0,0
17.02.2020 06:00:00 9,2 5,4 48 26 78 42 SW 1010,6 - 0,0
17.02.2020 05:00:00 8,9 4,9 44 24 90 49 SW 1010,8 - 0,2
17.02.2020 04:00:00 9,4 5,6 41 22 59 32 SW 1010,9 10 0,0
17.02.2020 03:00:00 9,5 5,7 40 22 64 35 SW 1011,5 - 0,0
17.02.2020 02:00:00 9,7 4,1 48 26 71 38 SW 1011,4 - 0,0
17.02.2020 01:00:00 9,9 5,3 51 28 69 37 WSW 1010,9 14 0,0
17.02.2020 00:00:00 9,2 5,2 39 21 73 40 WSW 1010,1 - 0,0
16.02.2020 23:00:00 9,8 5,4 46 25 67 36 WSW 1009,3 - 0,0
16.02.2020 22:00:00 9,8 3,7 52 28 84 45 WSW 1008,2 14 0,0
16.02.2020 21:00:00 10,0 5,8 53 29 75 41 WSW 1006,9 - 0,0
16.02.2020 20:00:00 10,0 6,2 50 27 77 42 WSW 1005,4 - 0,0
16.02.2020 19:00:00 9,7 5,9 56 30 95 51 WSW 1004,0 10 0,0
16.02.2020 18:00:00 9,6 8,7 45 25 64 35 SW 1002,5 - 0,0
16.02.2020 17:00:00 9,1 8,5 40 22 59 32 SW 1002,1 - 0,0
16.02.2020 16:00:00 8,7 8,2 34 19 68 37 WSW 1001,1 2,0 1,5
16.02.2020 15:00:00 7,9 7,6 49 27 73 39 WNW 999,8 - 3,6
16.02.2020 14:00:00 9,0 8,5 47 25 101 55 WNW 996,4 - 3,0
16.02.2020 13:00:00 12,2 11,9 55 30 79 43 SSW 995,7 4,0 1,7
16.02.2020 12:00:00 9,8 9,3 25 13 55 30 WSW 997,0 - 14,1
16.02.2020 11:00:00 11,6 11,1 43 23 66 36 SW 997,9 - 3,4
16.02.2020 10:00:00 11,9 11,4 45 24 69 37 SSW 997,7 1,5 1,9
16.02.2020 09:00:00 11,9 11,4 49 27 70 38 SSW 997,9 - 1,2
16.02.2020 08:00:00 12,0 11,4 48 26 81 44 SSW 997,9 - 1,8
16.02.2020 07:00:00 12,2 11,3 55 30 89 48 SSW 997,8 6 0,8
16.02.2020 06:00:00 12,2 11,4 60 33 86 47 SSW 997,9 - 0,4
16.02.2020 05:00:00 12,2 11,4 56 30 88 47 SSW 998,4 - 0,8
16.02.2020 04:00:00 12,3 11,2 53 29 79 43 SSW 999,6 6 0,0
16.02.2020 03:00:00 12,3 10,9 48 26 85 46 S 1000,6 - 0,0
16.02.2020 02:00:00 12,4 11,1 54 29 82 44 S 1001,1 - 0,8
16.02.2020 01:00:00 12,2 10,9 50 27 76 41 S 1002,1 6 0,4
16.02.2020 00:00:00 12,5 10,9 53 29 77 42 S 1002,7 - 0,2
15.02.2020 23:00:00 12,2 10,8 53 28 80 43 S 1003,8 - 0,0
15.02.2020 22:00:00 11,8 11,0 51 28 80 43 S 1003,7 6 0,2
15.02.2020 21:00:00 11,5 10,9 56 31 88 48 SSW 1004,4 - 0,2
15.02.2020 20:00:00 11,8 10,4 63 34 89 48 SSW 1004,4 - 0,0
15.02.2020 19:00:00 11,6 10,5 53 29 83 45 S 1003,9 6 0,2
15.02.2020 18:00:00 11,5 10,2 53 29 82 44 S 1003,8 - 0,6
15.02.2020 17:00:00 11,6 10,3 55 30 81 44 S 1005,6 - 1,6
15.02.2020 16:00:00 11,5 10,2 50 27 82 44 S 1006,1 8 1,4
15.02.2020 15:00:00 11,9 10,3 60 32 89 48 S 1006,9 - 0,0
15.02.2020 14:00:00 12,0 10,1 58 31 85 46 S 1007,8 - 0,0
15.02.2020 13:00:00 11,8 9,7 46 25 70 38 S 1009,4 8 0,0
15.02.2020 12:00:00 11,6 9,8 46 25 69 37 S 1010,3 - 0,0
15.02.2020 11:00:00 11,6 10,2 48 26 72 39 S 1010,9 - 0,0
15.02.2020 10:00:00 11,3 9,9 42 23 78 42 S 1012,2 8 0,0
15.02.2020 09:00:00 11,3 9,6 41 22 68 37 S 1012,7 - 0,0
15.02.2020 08:00:00 11,5 9,6 48 26 72 39 S 1013,1 - 0,0
15.02.2020 07:00:00 11,4 9,6 46 25 70 38 S 1013,2 10 0,0
15.02.2020 06:00:00 11,3 9,9 40 22 60 33 S 1013,9 - 0,0
15.02.2020 05:00:00 11,4 9,8 44 24 58 32 S 1014,5 - 0,0
15.02.2020 04:00:00 11,2 9,8 34 18 52 28 S 1015,4 10 0,0
15.02.2020 03:00:00 11,4 10,0 36 19 54 29 S 1016,2 - 0,0
15.02.2020 02:00:00 11,1 9,8 32 17 50 27 S 1016,7 - 0,0
15.02.2020 01:00:00 11,1 9,8 34 18 55 30 S 1017,0 10 0,0
15.02.2020 00:00:00 11,3 9,7 38 21 55 30 S 1017,2 - 0,0
14.02.2020 23:00:00 10,9 9,0 37 20 61 33 S 1017,8 - 0,0
14.02.2020 22:00:00 11,0 8,4 40 21 61 33 S 1018,1 12 0,0
14.02.2020 21:00:00 11,1 8,1 36 19 58 31 S 1018,4 - 0,0
14.02.2020 20:00:00 11,2 7,9 37 20 55 30 S 1018,8 - 0,0
14.02.2020 19:00:00 11,0 7,7 30 16 47 26 S 1019,0 8 0,0
14.02.2020 18:00:00 10,8 8,0 25 14 45 24 S 1018,8 - 0,0
14.02.2020 17:00:00 10,8 8,0 28 15 49 26 S 1019,2 - 0,0
14.02.2020 16:00:00 10,7 8,1 29 16 44 24 S 1019,4 8 0,0
14.02.2020 15:00:00 10,6 8,2 29 16 46 25 S 1019,7 - 0,0
14.02.2020 14:00:00 10,6 7,8 32 17 49 26 S 1019,6 - 0,0
14.02.2020 13:00:00 10,2 7,6 35 19 52 28 SSW 1019,9 10 0,0
14.02.2020 12:00:00 10,1 8,0 37 20 51 28 SSW 1020,3 - 0,0
14.02.2020 11:00:00 9,9 8,2 32 18 44 24 SSW 1020,4 - 0,0
14.02.2020 10:00:00 9,8 8,6 30 16 42 23 SSW 1020,4 12 0,0
14.02.2020 09:00:00 9,7 8,3 23 12 29 16 SSW 1019,9 - 0,0
14.02.2020 08:00:00 9,4 7,8 17 9 22 12 SW 1019,3 - 0,0
14.02.2020 07:00:00 9,3 7,2 12 6 23 12 SW 1018,8 8 0,0
14.02.2020 06:00:00 9,4 6,8 17 9 35 19 W 1018,1 - 0,0
14.02.2020 05:00:00 9,4 6,5 23 12 40 22 W 1017,6 - 0,0
14.02.2020 04:00:00 9,6 6,7 23 13 40 21 W 1017,1 8 0,0
14.02.2020 03:00:00 9,6 7,0 26 14 46 25 W 1016,4 - 0,0
14.02.2020 02:00:00 9,7 7,3 28 15 38 20 W 1015,9 - 0,0
14.02.2020 01:00:00 9,7 7,3 24 13 44 24 W 1015,1 8 0,0
14.02.2020 00:00:00 10,0 7,9 32 17 44 24 W 1014,1 - 0,0
13.02.2020 23:00:00 10,2 8,1 31 17 43 23 W 1012,9 - 0,0
13.02.2020 22:00:00 10,3 8,1 25 14 39 21 WSW 1011,9 8 0,0
13.02.2020 21:00:00 10,2 7,4 27 15 54 29 W 1010,5 - 0,0
13.02.2020 20:00:00 10,2 6,9 39 21 53 29 W 1008,6 - 0,0
13.02.2020 19:00:00 10,3 6,8 38 21 61 33 W 1006,6 8 0,0
13.02.2020 18:00:00 10,5 7,2 38 21 63 34 W 1004,5 - 0,0
13.02.2020 17:00:00 10,7 6,8 46 25 74 40 W 1002,4 - 0,0
13.02.2020 16:00:00 10,8 6,7 51 28 79 43 W 1000,1 8 0,0
13.02.2020 15:00:00 10,7 7,4 50 27 79 43 W 998,2 - 0,0
13.02.2020 14:00:00 10,5 7,6 58 32 100 54 W 996,4 - 0,0
13.02.2020 13:00:00 10,2 7,6 65 35 97 53 WSW 994,3 8 0,2
13.02.2020 12:00:00 9,4 8,0 63 34 103 55 SW 994,5 - 2,0
13.02.2020 11:00:00 10,2 6,7 64 35 95 52 SW 995,2 - 0,2
13.02.2020 10:00:00 10,0 6,0 67 36 98 53 WSW 996,1 8 0,2
13.02.2020 09:00:00 9,2 6,5 57 31 93 50 WSW 996,8 - 0,2
13.02.2020 08:00:00 9,5 4,9 66 35 103 55 WSW 996,7 - 0,0
13.02.2020 07:00:00 9,3 7,6 41 22 64 35 SW 996,7 8 0,4

tt = Température de l'air
td = dewpoint
ff = Vitesse du vent
fx = gusts
dd = Direction du vent
ppp = reduced air pressure
vv = visibility
rr = Quantités de précipitations

stations d'obs. à proximité